Saint Paul Island, AK

11:42 AM AKST on January 19, 2018 (GMT -0900)
Saint Paul Island

Weather History for PASN - July, 2013

Change the Weather History Date:

Tuesday, July 23, 2013

  Actual Average Record
Temperature  
Mean Temperature 49 °F 48 °F  
Max Temperature 54 °F 51 °F 60 °F (1979)
Min Temperature 43 °F 44 °F 33 °F (1992)
Degree Days  
Heating Degree Days 16 17  
Month to date heating degree days 440 417  
Since 1 June heating degree days 1150 1095  
Since 1 July heating degree days 440 417  
Cooling Degree Days 0 0  
Month to date cooling degree days 0 0  
Year to date cooling degree days 0 0  
Since 1 June cooling degree days 0 0  
Moisture  
Dew Point 50 °F    
Average Humidity 100    
Maximum Humidity 100    
Minimum Humidity 94    
Precipitation  
Precipitation 0.02 in 0.07 in 0.54 in (2004)
Month to date precipitation 1.40 1.28  
Year to date precipitation 10.13 8.79  
Snow  
Snow 0.00 in 0.00 in - ()
Month to date snowfall 0.0 0.0  
Since 1 June snowfall 0.0 T  
Since 1 July snowfall 0.0 0.0  
Snow Depth 0.00 in    
Sea Level Pressure  
Sea Level Pressure 30.46 in    
Wind  
Wind Speed 8 mph (SW)    
Max Wind Speed 18 mph    
Max Gust Speed 23 mph    
Visibility 2 miles    
Events Fog , Rain    
T = Trace of Precipitation, MM = Missing Value Source: NWS Daily Summary

Daily Weather History Graph

Daily Weather History Graph

Search for Another Location

Airport or City:

Trip Planner

Search our weather history database for the weather conditions in past years. The results will help you decide how hot, cold, wet, or windy it might be!

Date:

Astronomy

Jul. 23, 2013 Rise Set
Actual Time 7:02 AM AKDT 11:51 PM AKDT
Civil Twilight 6:06 AM AKDT 12:46 AM AKDT
Nautical Twilight 4:22 AM AKDT 2:26 AM AKDT
Astronomical Twilight Sun does not rise Sun does not rise
Moon 11:47 PM AKDT (7/23) 8:58 AM AKDT (7/23)
Length of Visible Light 18h 39m
Length of Day
16h 48m
Full, 98% of the Moon is Illuminated
Jul 23
Full
Jul 29
Last Quarter
Aug 6
New
Aug 14
First Quarter
Aug 20
Full

Hourly Weather History & Observations

Time (AKDT) Temp. Windchill Dew Point Humidity Pressure Visibility Wind Dir Wind Speed Gust Speed Precip Events Conditions
12:16 AM 48.2 °F - 48.2 °F 100% 30.47 in 1.8 mi SSE 3.5 mph - N/A   Overcast
12:21 AM 48.2 °F - 48.2 °F 100% 30.48 in 0.5 mi South 3.5 mph - N/A Fog Fog
12:53 AM 46.9 °F - 46.9 °F 100% 30.49 in 0.5 mi SSW 6.9 mph - N/A Fog Fog
1:53 AM 48.0 °F - 48.0 °F 100% 30.49 in 0.2 mi SW 4.6 mph - N/A Fog Fog
2:53 AM 46.0 °F - 46.0 °F 100% 30.48 in 0.5 mi Calm Calm - N/A Fog Fog
3:17 AM 46.4 °F - 46.4 °F 100% 30.49 in 0.8 mi Calm Calm - N/A   Mist
3:28 AM 44.6 °F - 44.6 °F 100% 30.48 in 0.5 mi Calm Calm - N/A Fog Fog
3:45 AM 44.6 °F 43.1 °F 44.6 °F 100% 30.48 in 0.8 mi SSW 3.5 mph - N/A   Mist
3:53 AM 44.1 °F - 44.1 °F 100% 30.48 in 0.5 mi Calm Calm - N/A Fog Fog
4:53 AM 43.0 °F - 43.0 °F 100% 30.49 in 0.5 mi Calm Calm - N/A Fog Fog
5:08 AM 44.6 °F - 44.6 °F 100% 30.49 in 0.5 mi Calm Calm - N/A Fog Fog
5:32 AM 44.6 °F 43.1 °F 44.6 °F 100% 30.48 in 1.0 mi WSW 3.5 mph - N/A   Overcast
5:42 AM 46.4 °F - 46.4 °F 100% 30.49 in 0.8 mi Calm Calm - N/A   Overcast
5:53 AM 46.0 °F - 46.0 °F 100% 30.48 in 0.8 mi Calm Calm - N/A   Overcast
6:04 AM 46.4 °F - 46.4 °F 100% 30.47 in 0.5 mi Calm Calm - N/A Fog Fog
6:15 AM 46.4 °F - 46.4 °F 100% 30.48 in 0.8 mi Calm Calm - N/A   Overcast
6:25 AM 44.6 °F - 44.6 °F 100% 30.48 in 0.8 mi Calm Calm - N/A   Overcast
6:41 AM 44.6 °F - 44.6 °F 100% 30.48 in 0.5 mi Calm Calm - N/A Fog Fog
6:53 AM 44.1 °F - 44.1 °F 100% 30.49 in 0.2 mi Calm Calm - N/A Fog Fog
7:53 AM 46.0 °F 43.9 °F 46.0 °F 100% 30.48 in 0.2 mi South 4.6 mph - N/A Fog Fog
8:02 AM 46.4 °F 45.2 °F 46.4 °F 100% 30.47 in 0.2 mi South 3.5 mph - N/A Fog Fog
8:21 AM 46.4 °F 44.3 °F 46.4 °F 100% 30.48 in 1.0 mi SSW 4.6 mph - N/A   Overcast
8:28 AM 48.2 °F - 48.2 °F 100% 30.48 in 3.0 mi SSW 5.8 mph - N/A   Overcast
8:41 AM 48.2 °F - 48.2 °F 100% 30.48 in 5.0 mi SSW 3.5 mph - N/A   Overcast
8:50 AM 48.2 °F - 48.2 °F 100% 30.48 in 4.0 mi SSW 5.8 mph - N/A   Overcast
8:53 AM 48.0 °F - 48.0 °F 100% 30.48 in 5.0 mi SSW 6.9 mph - N/A   Overcast
9:18 AM 48.2 °F - 48.2 °F 100% 30.47 in 1.8 mi South 6.9 mph - N/A   Overcast
9:32 AM 48.2 °F - 48.2 °F 100% 30.47 in 0.5 mi South 4.6 mph - N/A Fog Fog
9:53 AM 48.0 °F - 48.0 °F 100% 30.48 in 0.8 mi South 5.8 mph - N/A   Mist
10:13 AM 48.2 °F - 48.2 °F 100% 30.47 in 3.0 mi SSW 9.2 mph - N/A   Overcast
10:44 AM 48.2 °F - 48.2 °F 100% 30.48 in 1.8 mi SSW 8.1 mph - N/A   Overcast
10:53 AM 48.0 °F - 48.0 °F 100% 30.48 in 1.0 mi SSW 8.1 mph - N/A   Mist
11:35 AM 50.0 °F - 50.0 °F 100% 30.48 in 0.5 mi SSW 12.7 mph - N/A Fog Fog
11:53 AM 50.0 °F - 50.0 °F 100% 30.47 in 0.8 mi SW 11.5 mph - N/A   Mist
12:07 PM 51.8 °F - 51.8 °F 100% 30.46 in 1.8 mi SSW 9.2 mph - N/A   Overcast
12:13 PM 51.8 °F - 51.8 °F 100% 30.46 in 3.0 mi SW 9.2 mph - N/A   Overcast
12:50 PM 53.6 °F - 53.6 °F 100% 30.47 in 1.8 mi SW 15.0 mph - N/A   Overcast
12:53 PM 53.1 °F - 52.0 °F 96% 30.47 in 1.2 mi SW 15.0 mph - N/A   Overcast
1:09 PM 53.6 °F - 51.8 °F 94% 30.46 in 3.0 mi SW 15.0 mph - N/A   Overcast
1:53 PM 52.0 °F - 52.0 °F 100% 30.47 in 0.8 mi SW 11.5 mph - 0.00 in   Light Drizzle
2:19 PM 51.8 °F - 51.8 °F 100% 30.45 in 0.5 mi SW 12.7 mph - 0.01 in Fog Drizzle
2:38 PM 51.8 °F - 51.8 °F 100% 30.45 in 1.0 mi SW 13.8 mph - 0.01 in Rain Light Rain
2:48 PM 51.8 °F - 51.8 °F 100% 30.45 in 0.8 mi SW 15.0 mph - 0.02 in Rain Light Rain
2:53 PM 52.0 °F - 52.0 °F 100% 30.46 in 0.8 mi SW 11.5 mph - 0.02 in Rain Light Rain
3:02 PM 51.8 °F - 51.8 °F 100% 30.46 in 1.2 mi SW 11.5 mph - 0.00 in   Overcast
3:29 PM 53.6 °F - 53.6 °F 100% 30.44 in 3.0 mi WSW 16.1 mph - 0.00 in   Overcast
3:42 PM 53.6 °F - 53.6 °F 100% 30.44 in 1.8 mi WSW 15.0 mph - 0.00 in   Overcast
3:53 PM 53.1 °F - 53.1 °F 100% 30.45 in 1.2 mi SW 17.3 mph - 0.00 in   Overcast
4:29 PM 51.8 °F - 51.8 °F 100% 30.45 in 0.8 mi WSW 15.0 mph - N/A   Overcast
4:44 PM 53.6 °F - 51.8 °F 94% 30.45 in 2.0 mi WSW 13.8 mph - N/A   Overcast
4:53 PM 53.1 °F - 52.0 °F 96% 30.45 in 10.0 mi SW 12.7 mph - N/A   Overcast
5:53 PM 52.0 °F - 51.1 °F 97% 30.43 in 4.0 mi SW 9.2 mph - N/A   Overcast
6:20 PM 51.8 °F - 51.8 °F 100% 30.44 in 1.5 mi WSW 12.7 mph - N/A   Overcast
6:42 PM 51.8 °F - 51.8 °F 100% 30.43 in 0.8 mi WSW 11.5 mph - N/A   Overcast
6:53 PM 51.1 °F - 51.1 °F 100% 30.44 in 1.0 mi WSW 11.5 mph - N/A   Overcast
7:45 PM 53.6 °F - 51.8 °F 94% 30.43 in 2.0 mi West 11.5 mph - N/A   Overcast
7:53 PM 53.1 °F - 52.0 °F 96% 30.43 in 1.8 mi West 15.0 mph - N/A   Overcast
8:27 PM 51.8 °F - 51.8 °F 100% 30.43 in 0.8 mi West 11.5 mph - N/A   Overcast
8:53 PM 52.0 °F - 52.0 °F 100% 30.43 in 1.0 mi West 11.5 mph - N/A   Mist
9:03 PM 51.8 °F - 51.8 °F 100% 30.42 in 0.8 mi West 10.4 mph - N/A   Mist
9:19 PM 51.8 °F - 51.8 °F 100% 30.43 in 1.0 mi West 11.5 mph - N/A   Mist
9:27 PM 53.6 °F - 53.6 °F 100% 30.43 in 3.0 mi West 10.4 mph - N/A   Overcast
9:42 PM 53.6 °F - 53.6 °F 100% 30.42 in 9.0 mi West 8.1 mph - N/A   Overcast
9:51 PM 53.6 °F - 53.6 °F 100% 30.42 in 1.8 mi West 8.1 mph - N/A   Overcast
9:53 PM 52.0 °F - 52.0 °F 100% 30.43 in 1.2 mi West 6.9 mph - N/A   Overcast
10:06 PM 51.8 °F - 51.8 °F 100% 30.42 in 3.0 mi West 8.1 mph - N/A   Overcast
10:23 PM 53.6 °F - 53.6 °F 100% 30.43 in 1.8 mi West 8.1 mph - N/A   Overcast
10:34 PM 53.6 °F - 53.6 °F 100% 30.43 in 3.0 mi West 6.9 mph - N/A   Overcast
10:46 PM 51.8 °F - 51.8 °F 100% 30.42 in 1.8 mi West 9.2 mph - N/A   Overcast
10:53 PM 51.1 °F - 51.1 °F 100% 30.42 in 1.0 mi West 9.2 mph - N/A   Overcast
11:07 PM 51.8 °F - 51.8 °F 100% 30.42 in 3.0 mi West 5.8 mph - N/A   Overcast
11:53 PM 51.1 °F - 51.1 °F 100% 30.42 in 2.0 mi WSW 6.9 mph - N/A   Overcast
11:59 PM 51.8 °F - 51.8 °F 100% 30.42 in 0.8 mi WSW 8.1 mph - N/A   Overcast